Lid_Strength_Index
11 11 12 13 15 14 17 18 17 16 13 10 9 8 8 8 7 7 6 5 5 4 4 3 3 3 2 2 2 1 1 1
12 11 11 13 14 16 16 18 19 17 15 15 13 12 9 8 8 7 6 5 5 4 4 3 3 3 2 2 2 1 1 1
13 15 16 15 16 17 17 17 18 19 16 12 13 10 11 8 7 7 6 5 5 4 3 3 3 3 3 2 2 2 1 1
17 13 12 14 16 18 18 18 19 17 17 12 9 8 8 8 7 6 6 5 4 4 3 3 3 3 3 2 2 1 1 1
17 16 14 15 14 17 18 19 19 18 16 11 8 8 8 7 7 6 6 5 5 4 4 4 3 2 3 2 2 1 1 1
18 18 16 15 14 14 17 18 19 18 16 12 10 9 9 8 6 6 6 5 5 5 4 3 3 3 2 2 2 2 1 1
15 13 13 14 14 14 16 16 17 16 15 11 10 9 8 8 8 7 6 6 6 5 4 3 3 3 2 2 2 1 2 2
15 13 13 14 13 13 14 14 14 13 13 9 8 7 8 8 7 8 7 6 6 6 6 5 5 4 3 2 2 1 2 2
19 15 15 17 14 13 12 11 12 15 12 9 9 8 8 8 7 7 6 5 6 6 6 6 5 5 5 3 1 2 2 2
18 18 20 16 12 11 10 10 10 10 9 8 8 8 6 6 7 7 6 5 4 5 5 6 5 6 5 4 2 2 2 2
18 19 16 13 11 11 12 12 8 9 9 8 8 8 7 7 7 7 6 5 5 4 4 4 5 5 5 4 5 4 3 2
18 20 19 14 9 8 9 15 9 8 9 10 9 12 9 8 8 6 5 5 5 4 4 5 5 6 6 5 6 6 5 5
17 19 15 10 9 8 15 15 9 9 9 10 11 9 8 8 7 7 6 5 4 4 5 4 4 6 7 6 7 6 6 5
15 18 19 9 9 12 11 10 10 10 10 10 9 8 8 8 8 7 7 6 5 5 5 4 4 7 8 7 7 5 5 5
15 15 10 9 10 9 9 11 10 10 9 8 9 9 7 7 6 7 6 6 5 5 5 5 5 5 7 7 6 6 6 5
15 13 12 10 9 8 8 9 9 8 8 8 8 8 7 7 6 6 5 5 5 5 5 6 5 5 6 6 6 6 7 6
15 13 12 10 9 9 8 7 6 6 7 7 7 7 7 7 6 6 5 4 4 5 6 5 5 6 6 6 6 7 7 7
15 12 12 11 9 8 8 8 7 6 6 6 6 7 7 7 6 5 5 4 4 4 5 5 3 6 7 6 7 8 8 9
12 11 10 9 8 8 8 7 6 6 5 6 6 6 7 7 6 5 4 4 4 5 4 4 3 5 7 7 8 9 9 9